PDT,Max TemperatureF,Mean TemperatureF,Min TemperatureF,Max Dew PointF,MeanDew PointF,Min DewpointF,Max Humidity, Mean Humidity, Min Humidity, Max Sea Level PressureIn, Mean Sea Level PressureIn, Min Sea Level PressureIn, Max VisibilityMiles, Mean VisibilityMiles, Min VisibilityMiles, Max Wind SpeedMPH, Mean Wind SpeedMPH, Max Gust SpeedMPH,PrecipitationIn, CloudCover, Events, WindDirDegrees
2012-10-1,86,64,44,50,42,35,71,47,25,30.28,30.14,29.98,10,7,2,25,7,34,0.00,0,,329
2012-10-2,71,58,42,51,33,21,63,39,18,30.26,30.04,29.96,10,10,10,30,19,38,0.00,0,,310
2012-10-3,64,47,30,27,25,22,72,48,21,30.44,30.37,30.28,10,10,2,14,4,18,0.00,0,,79
2012-10-4,66,48,30,29,24,22,75,47,19,30.36,30.32,30.29,10,9,5,10,2,18,0.00,0,,158
2012-10-5,66,46,28,27,22,20,69,44,19,30.41,30.35,30.31,10,8,5,14,3,17,0.00,0,,128
2012-10-6,70,48,28,29,24,20,69,46,18,30.38,30.30,30.22,10,7,4,7,2,,0.00,0,,95
2012-10-7,73,52,30,33,26,21,69,45,17,30.22,30.11,29.99,10,7,3,7,3,,0.00,0,,79
2012-10-8,73,52,32,36,30,24,73,49,21,30.00,29.96,29.90,10,8,3,8,1,,0.00,0,,19
2012-10-9,78,58,37,41,36,31,76,47,21,30.09,30.02,29.98,10,9,2,9,2,,0.00,0,,120
2012-10-10,80,58,37,41,35,31,79,44,19,29.98,29.89,29.81,10,8,2,22,7,28,0.00,0,,326
2012-10-11,75,56,36,40,35,30,79,55,24,29.99,29.90,29.78,10,10,8,10,4,,0.00,0,,70
2012-10-12,70,54,39,47,40,32,77,62,33,29.92,29.83,29.77,10,10,10,23,5,29,0.00,2,,309
2012-10-13,64,58,52,52,48,45,86,73,54,30.14,30.08,29.96,10,9,1,13,7,18,0.00,7,Rain,303
2012-10-14,62,56,50,52,48,46,89,83,70,30.12,30.04,29.87,10,3,0,8,2,,0.01,5,Fog,51
2012-10-15,68,57,46,54,49,43,94,77,45,29.92,29.77,29.55,10,5,0,10,3,,0.33,5,Fog-Rain,18
2012-10-16,57,50,46,50,39,33,88,64,49,30.17,29.84,29.53,10,9,0,41,14,59,0.01,2,Fog-Rain,306
2012-10-17,62,51,41,37,33,29,70,54,30,30.28,30.24,30.18,10,10,10,20,10,,0.00,2,,346
2012-10-18,66,50,36,40,35,29,79,61,34,30.25,30.10,29.85,10,10,10,6,2,,0.00,0,Rain,92
2012-10-19,64,54,44,49,42,37,83,68,56,29.84,29.74,29.66,10,10,5,23,5,30,0.01,5,Rain,332
2012-10-20,53,42,32,35,30,25,82,59,37,29.87,29.82,29.72,10,10,10,22,14,32,0.00,3,,315
2012-10-21,53,38,26,31,26,20,86,74,43,29.92,29.86,29.82,10,6,0,7,2,,0.00,5,Fog,109
2012-10-22,42,38,35,36,32,29,87,81,73,29.81,29.63,29.55,10,7,1,10,3,26,0.46,8,Rain-Snow,305
2012-10-23,48,39,32,34,32,26,87,76,62,29.93,29.82,29.67,10,10,6,7,1,,0.00,6,,66
2012-10-24,45,40,35,36,32,30,87,79,65,30.17,29.97,29.89,10,5,0,6,2,,0.33,8,Fog-Rain-Snow,292
2012-10-25,53,41,30,36,32,25,83,68,45,30.41,30.33,30.18,10,10,10,7,3,,0.00,4,,308
2012-10-26,42,40,37,37,35,32,87,82,76,30.37,30.20,30.06,10,8,2,7,1,,0.27,7,Rain,101
2012-10-27,45,42,39,40,38,34,87,82,76,30.09,29.98,29.84,10,5,2,8,1,,0.41,8,Rain,270
2012-10-28,66,50,37,45,41,34,86,64,39,29.90,29.86,29.82,10,9,2,20,8,28,0.02,2,Rain,308
2012-10-29,66,55,44,49,43,39,87,74,47,30.02,29.88,29.79,10,9,0,23,5,36,0.03,4,Fog-Rain,305
2012-10-30,57,52,46,49,46,41,88,83,74,30.00,29.89,29.83,10,6,0,7,3,,0.04,8,Fog-Rain,278
2012-10-31,57,54,50,50,47,46,89,84,77,29.83,29.76,29.67,10,3,0,7,3,,0.01,7,Fog-Rain,1